^^
Station Historical Data
Daily Summary for August 23, 2021 Units:  English    Metric   Both
Daily Weekly Monthly Yearly
  High: Low: Average:
Temperature: 81.1 °F 68 °F 74.3 °F
Dew Point: 71.8 °F 63.6 °F 67.6 °F
Humidity: 91% 65% 80%
Wind Speed: 4mph 0mph 1.2mph
Wind Gust: 8mph - -
Wind- - SE
Pressure: 29.92 in 29.84 in -
Precipitation: 0.00 in    
 
 
Tabular Data for August 23, 2021
Time Temperature Dew Point Pressure Wind Wind Speed Wind Gust Humidity Rainfall Rate (Hourly) solar
00:00 70.2 °F 64.8 °F 29.90 in Calm     83% 0.00 in 0 W/m2
00:10 70.1 °F 65 °F 29.90 in Calm     84% 0.00 in 0 W/m2
00:15 70.1 °F 65 °F 29.90 in Calm   1 mph 84% 0.00 in 0 W/m2
00:20 70 °F 64.9 °F 29.90 in East 1 mph 1 mph 84% 0.00 in 0 W/m2
00:25 70 °F 64.9 °F 29.90 in NNE 1 mph 1 mph 84% 0.00 in 0 W/m2
00:30 70 °F 64.9 °F 29.90 in Calm     84% 0.00 in 0 W/m2
00:35 69.9 °F 64.8 °F 29.90 in Calm     84% 0.00 in 0 W/m2
00:40 69.9 °F 64.8 °F 29.90 in Calm     84% 0.00 in 0 W/m2
00:45 69.8 °F 64.7 °F 29.90 in Calm   1 mph 84% 0.00 in 0 W/m2
00:50 69.7 °F 64.6 °F 29.90 in Calm     84% 0.00 in 0 W/m2
00:55 69.7 °F 64.6 °F 29.91 in Calm     84% 0.00 in 0 W/m2
01:00 69.6 °F 64.5 °F 29.90 in Calm     84% 0.00 in 0 W/m2
01:05 69.5 °F 64.8 °F 29.91 in Calm   1 mph 85% 0.00 in 0 W/m2
01:10 69.5 °F 64.8 °F 29.91 in Calm     85% 0.00 in 0 W/m2
01:15 69.5 °F 64.8 °F 29.91 in Calm     85% 0.00 in 0 W/m2
01:20 69.5 °F 65.1 °F 29.91 in NE 1 mph 1 mph 86% 0.00 in 0 W/m2
01:25 69.4 °F 65 °F 29.91 in NE 1 mph 1 mph 86% 0.00 in 0 W/m2
01:30 69.4 °F 65 °F 29.91 in East 1 mph 1 mph 86% 0.00 in 0 W/m2
01:35 69.5 °F 65.1 °F 29.91 in NE 1 mph 1 mph 86% 0.00 in 0 W/m2
01:40 69.5 °F 65.1 °F 29.91 in Calm     86% 0.00 in 0 W/m2
01:45 69.6 °F 65.2 °F 29.91 in ENE 1 mph 1 mph 86% 0.00 in 0 W/m2
01:50 69.7 °F 65.3 °F 29.91 in NE 1 mph 1 mph 86% 0.00 in 0 W/m2
01:55 69.8 °F 65.1 °F 29.90 in NNW 1 mph 1 mph 85% 0.00 in 0 W/m2
02:00 69.8 °F 65.1 °F 29.91 in ENE 1 mph 3 mph 85% 0.00 in 0 W/m2
02:05 69.9 °F 64.8 °F 29.90 in East 1 mph 3 mph 84% 0.00 in 0 W/m2
02:10 70 °F 64.9 °F 29.90 in NE 1 mph 1 mph 84% 0.00 in 0 W/m2
02:15 70 °F 64.6 °F 29.90 in NE 1 mph 1 mph 83% 0.00 in 0 W/m2
02:20 70.1 °F 64.7 °F 29.91 in NE 1 mph 2 mph 83% 0.00 in 0 W/m2
02:25 70.1 °F 64.7 °F 29.90 in NNE 1 mph 2 mph 83% 0.00 in 0 W/m2
02:30 70.3 °F 64.9 °F 29.90 in ESE 1 mph 1 mph 83% 0.00 in 0 W/m2
02:35 70.3 °F 64.5 °F 29.90 in NE 1 mph 1 mph 82% 0.00 in 0 W/m2
02:40 70.3 °F 64.5 °F 29.90 in ENE 1 mph 1 mph 82% 0.00 in 0 W/m2
02:45 70.4 °F 64.6 °F 29.90 in East 1 mph 1 mph 82% 0.00 in 0 W/m2
02:50 70.4 °F 64.6 °F 29.90 in ESE 1 mph 2 mph 82% 0.00 in 0 W/m2
02:55 70.4 °F 64.6 °F 29.90 in East 1 mph 2 mph 82% 0.00 in 0 W/m2
03:00 70.3 °F 64.5 °F 29.90 in East 1 mph 1 mph 82% 0.00 in 0 W/m2
03:05 70.3 °F 64.5 °F 29.90 in Calm   1 mph 82% 0.00 in 0 W/m2
03:10 70.3 °F 64.5 °F 29.90 in Calm     82% 0.00 in 0 W/m2
03:15 70.3 °F 64.9 °F 29.90 in Calm   1 mph 83% 0.00 in 0 W/m2
03:20 70.2 °F 64.8 °F 29.90 in Calm     83% 0.00 in 0 W/m2
03:25 70.1 °F 64.7 °F 29.90 in Calm     83% 0.00 in 0 W/m2
03:30 70.1 °F 64.7 °F 29.90 in Calm     83% 0.00 in 0 W/m2
03:35 69.9 °F 64.5 °F 29.90 in Calm   1 mph 83% 0.00 in 0 W/m2
03:40 69.8 °F 64.4 °F 29.90 in Calm     83% 0.00 in 0 W/m2
03:45 69.7 °F 64.3 °F 29.90 in Calm     83% 0.00 in 0 W/m2
03:50 69.5 °F 64.1 °F 29.90 in Calm     83% 0.00 in 0 W/m2
03:55 69.4 °F 64 °F 29.90 in Calm     83% 0.00 in 0 W/m2
04:00 69.2 °F 63.8 °F 29.89 in Calm     83% 0.00 in 0 W/m2
04:05 69 °F 64 °F 29.90 in Calm     84% 0.00 in 0 W/m2
04:10 69 °F 64 °F 29.90 in Calm     84% 0.00 in 0 W/m2
04:15 68.9 °F 63.9 °F 29.90 in Calm     84% 0.00 in 0 W/m2
04:20 68.7 °F 63.7 °F 29.90 in Calm     84% 0.00 in 0 W/m2
04:25 68.6 °F 63.6 °F 29.89 in Calm     84% 0.00 in 0 W/m2
04:30 68.6 °F 63.9 °F 29.90 in Calm     85% 0.00 in 0 W/m2
04:35 68.4 °F 63.7 °F 29.90 in Calm     85% 0.00 in 0 W/m2
04:40 68.4 °F 63.7 °F 29.90 in Calm     85% 0.00 in 0 W/m2
04:45 68.4 °F 64 °F 29.90 in Calm     86% 0.00 in 0 W/m2
04:50 68.3 °F 63.9 °F 29.90 in Calm     86% 0.00 in 0 W/m2
04:55 68.2 °F 63.9 °F 29.89 in Calm     86% 0.00 in 0 W/m2
05:00 68.2 °F 63.9 °F 29.90 in Calm     86% 0.00 in 0 W/m2
05:05 68.1 °F 63.8 °F 29.90 in Calm     86% 0.00 in 0 W/m2
05:10 68.1 °F 63.8 °F 29.90 in Calm     86% 0.00 in 0 W/m2
05:15 68 °F 64 °F 29.90 in Calm     87% 0.00 in 0 W/m2
05:20 68 °F 64 °F 29.90 in Calm     87% 0.00 in 0 W/m2
05:25 68 °F 64 °F 29.90 in Calm     87% 0.00 in 0 W/m2
05:30 68 °F 64 °F 29.90 in Calm     87% 0.00 in 0 W/m2
05:35 68 °F 64 °F 29.89 in Calm     87% 0.00 in 0 W/m2
05:40 68 °F 64 °F 29.89 in Calm     87% 0.00 in 0 W/m2
05:45 68 °F 64 °F 29.89 in Calm     87% 0.00 in 0 W/m2
05:50 68 °F 64 °F 29.89 in Calm   1 mph 87% 0.00 in 0 W/m2
05:55 68 °F 64 °F 29.89 in Calm   1 mph 87% 0.00 in 0 W/m2
06:00 68 °F 64 °F 29.89 in Calm     87% 0.00 in 0 W/m2
06:05 68 °F 64 °F 29.89 in Calm     87% 0.00 in 0 W/m2
06:10 68 °F 64 °F 29.89 in Calm     87% 0.00 in 0 W/m2
06:15 68 °F 64 °F 29.89 in Calm     87% 0.00 in 0 W/m2
06:20 68 °F 64.3 °F 29.89 in Calm     88% 0.00 in 0 W/m2
06:25 68.1 °F 64.4 °F 29.89 in Calm     88% 0.00 in 0 W/m2
06:30 68.2 °F 64.5 °F 29.90 in Calm     88% 0.00 in 0 W/m2
06:35 68.2 °F 64.5 °F 29.90 in Calm   1 mph 88% 0.00 in 0 W/m2
06:40 68.2 °F 64.8 °F 29.90 in Calm     89% 0.00 in 0 W/m2
06:45 68.3 °F 64.9 °F 29.90 in Calm     89% 0.00 in 0 W/m2
06:50 68.3 °F 64.9 °F 29.90 in Calm     89% 0.00 in 5 W/m2
06:55 68.3 °F 64.9 °F 29.90 in Calm     89% 0.00 in 7 W/m2
07:00 68.3 °F 64.9 °F 29.90 in Calm     89% 0.00 in 11 W/m2
07:05 68.4 °F 65 °F 29.90 in Calm   1 mph 89% 0.00 in 12 W/m2
07:10 68.4 °F 65 °F 29.90 in Calm     89% 0.00 in 16 W/m2
07:15 68.5 °F 65.1 °F 29.90 in Calm     89% 0.00 in 16 W/m2
07:20 68.5 °F 65.1 °F 29.90 in Calm   1 mph 89% 0.00 in 19 W/m2
07:25 68.6 °F 65.2 °F 29.90 in Calm   1 mph 89% 0.00 in 32 W/m2
07:30 68.8 °F 65.7 °F 29.90 in North 1 mph 1 mph 90% 0.00 in 44 W/m2
07:35 69 °F 65.9 °F 29.90 in ESE 1 mph 1 mph 90% 0.00 in 42 W/m2
07:40 69.1 °F 66 °F 29.90 in ENE 1 mph 1 mph 90% 0.00 in 40 W/m2
07:45 69.4 °F 66.7 °F 29.89 in NW 1 mph 1 mph 91% 0.00 in 46 W/m2
07:50 69.8 °F 67.1 °F 29.89 in SE 1 mph 1 mph 91% 0.00 in 51 W/m2
07:55 70 °F 67.3 °F 29.89 in SE 1 mph 1 mph 91% 0.00 in 53 W/m2
08:00 70 °F 66.9 °F 29.89 in ENE 1 mph 1 mph 90% 0.00 in 63 W/m2
08:05 70.1 °F 67 °F 29.89 in NE 1 mph 1 mph 90% 0.00 in 58 W/m2
08:10 70.1 °F 67 °F 29.90 in ESE 1 mph 1 mph 90% 0.00 in 70 W/m2
08:15 70.1 °F 67 °F 29.90 in ENE 1 mph 2 mph 90% 0.00 in 81 W/m2
08:20 70.2 °F 67.1 °F 29.90 in ENE 1 mph 1 mph 90% 0.00 in 104 W/m2
08:25 70.3 °F 67.2 °F 29.90 in NE 1 mph 1 mph 90% 0.00 in 111 W/m2
08:30 70.4 °F 67.3 °F 29.90 in NE 1 mph 1 mph 90% 0.00 in 135 W/m2
08:35 70.5 °F 67.1 °F 29.90 in WSW 1 mph 1 mph 89% 0.00 in 120 W/m2
08:40 70.6 °F 67.2 °F 29.90 in NE 1 mph 1 mph 89% 0.00 in 134 W/m2
08:45 70.6 °F 67.2 °F 29.89 in SE 1 mph 1 mph 89% 0.00 in 229 W/m2
08:50 70.8 °F 67.4 °F 29.89 in South 1 mph 2 mph 89% 0.00 in 220 W/m2
08:55 70.9 °F 67.2 °F 29.90 in East 1 mph 2 mph 88% 0.00 in 250 W/m2
09:00 71 °F 67.3 °F 29.90 in East 2 mph 2 mph 88% 0.00 in 255 W/m2
09:05 71.2 °F 67.1 °F 29.90 in NE 2 mph 2 mph 87% 0.00 in 294 W/m2
09:10 71.2 °F 66.5 °F 29.90 in ESE 1 mph 1 mph 85% 0.00 in 216 W/m2
09:15 71.3 °F 66.2 °F 29.90 in NNE 1 mph 1 mph 84% 0.00 in 213 W/m2
09:20 71.5 °F 66.4 °F 29.90 in ESE 1 mph 1 mph 84% 0.00 in 285 W/m2
09:25 71.8 °F 66.7 °F 29.91 in ESE 1 mph 1 mph 84% 0.00 in 197 W/m2
09:30 71.9 °F 66.8 °F 29.91 in ENE 1 mph 2 mph 84% 0.00 in 185 W/m2
09:35 72.1 °F 66.6 °F 29.91 in North 1 mph 2 mph 83% 0.00 in 339 W/m2
09:40 72.2 °F 66.7 °F 29.91 in East 1 mph 1 mph 83% 0.00 in 223 W/m2
09:45 72.4 °F 66.9 °F 29.91 in East 1 mph 1 mph 83% 0.00 in 221 W/m2
09:50 72.5 °F 66.7 °F 29.92 in Calm   1 mph 82% 0.00 in 251 W/m2
09:55 72.7 °F 66.9 °F 29.91 in Calm   1 mph 82% 0.00 in 229 W/m2
10:00 72.9 °F 66.7 °F 29.91 in SSE 1 mph 1 mph 81% 0.00 in 220 W/m2
10:05 73 °F 66.8 °F 29.91 in East 1 mph 1 mph 81% 0.00 in 246 W/m2
10:10 73.2 °F 67 °F 29.91 in ESE 1 mph 1 mph 81% 0.00 in 230 W/m2
10:15 73.3 °F 66.8 °F 29.91 in North 1 mph 1 mph 80% 0.00 in 234 W/m2
10:20 73.5 °F 66.9 °F 29.91 in Calm     80% 0.00 in 241 W/m2
10:25 73.6 °F 67.4 °F 29.91 in Calm     81% 0.00 in 230 W/m2
10:30 73.8 °F 67.6 °F 29.91 in SE 1 mph 1 mph 81% 0.00 in 236 W/m2
10:35 73.9 °F 67.7 °F 29.91 in SSW 1 mph 1 mph 81% 0.00 in 218 W/m2
10:40 73.8 °F 67.6 °F 29.91 in South 1 mph 1 mph 81% 0.00 in 190 W/m2
10:45 73.9 °F 67.7 °F 29.91 in SE 1 mph 1 mph 81% 0.00 in 167 W/m2
10:50 74 °F 67.8 °F 29.91 in ENE 1 mph 1 mph 81% 0.00 in 207 W/m2
10:55 74.1 °F 67.9 °F 29.91 in Calm   1 mph 81% 0.00 in 253 W/m2
11:00 74.2 °F 68 °F 29.91 in Calm     81% 0.00 in 185 W/m2
11:05 74.2 °F 68 °F 29.92 in East 1 mph 1 mph 81% 0.00 in 130 W/m2
11:10 74.2 °F 67.6 °F 29.92 in NE 1 mph 1 mph 80% 0.00 in 181 W/m2
11:15 74.2 °F 67.6 °F 29.91 in NE 1 mph 1 mph 80% 0.00 in 392 W/m2
11:20 74.2 °F 67.6 °F 29.92 in WNW 2 mph 2 mph 80% 0.00 in 345 W/m2
11:25 74.4 °F 67.8 °F 29.91 in NNE 2 mph 2 mph 80% 0.00 in 775 W/m2
11:30 74.6 °F 68 °F 29.91 in NE 2 mph 2 mph 80% 0.00 in 380 W/m2
11:35 74.8 °F 68.2 °F 29.91 in ENE 2 mph 2 mph 80% 0.00 in 649 W/m2
11:40 74.9 °F 67.9 °F 29.90 in NNE 2 mph 2 mph 79% 0.00 in 649 W/m2
11:45 75.1 °F 68.1 °F 29.91 in NNE 2 mph 2 mph 79% 0.00 in 663 W/m2
11:50 75.3 °F 68.3 °F 29.91 in NE 2 mph 2 mph 79% 0.00 in 758 W/m2
11:55 75.5 °F 68.2 °F 29.91 in North 2 mph 2 mph 78% 0.00 in 744 W/m2
12:00 75.7 °F 68.4 °F 29.91 in NE 2 mph 2 mph 78% 0.00 in 540 W/m2
12:05 75.9 °F 68.5 °F 29.91 in NW 2 mph 2 mph 78% 0.00 in 385 W/m2
12:10 76.2 °F 69.2 °F 29.91 in North 2 mph 2 mph 79% 0.00 in 738 W/m2
12:15 76.5 °F 69.1 °F 29.91 in NE 1 mph 2 mph 78% 0.00 in 696 W/m2
12:20 76.7 °F 69.3 °F 29.91 in ESE 1 mph 2 mph 78% 0.00 in 759 W/m2
12:25 77.2 °F 70.2 °F 29.91 in NW 1 mph 2 mph 79% 0.00 in 714 W/m2
12:30 77.4 °F 70.4 °F 29.91 in SSW 2 mph 3 mph 79% 0.00 in 714 W/m2
12:35 77.5 °F 70.1 °F 29.90 in SSW 2 mph 3 mph 78% 0.00 in 715 W/m2
12:40 77.7 °F 70.3 °F 29.90 in SW 2 mph 3 mph 78% 0.00 in 738 W/m2
12:45 77.7 °F 70.7 °F 29.90 in WSW 2 mph 3 mph 79% 0.00 in 766 W/m2
12:55 77.9 °F 70.9 °F 29.91 in South 3 mph 3 mph 79% 0.00 in 745 W/m2
13:00 78 °F 71 °F 29.91 in SSW 3 mph 6 mph 79% 0.00 in 747 W/m2
13:05 78.2 °F 71.2 °F 29.91 in SW 3 mph 6 mph 79% 0.00 in 742 W/m2
13:10 78 °F 71 °F 29.91 in West 3 mph 3 mph 79% 0.00 in 740 W/m2
13:15 77.3 °F 71 °F 29.90 in SW 3 mph 5 mph 81% 0.00 in 744 W/m2
13:20 76.9 °F 70.6 °F 29.90 in SSE 3 mph 3 mph 81% 0.00 in 744 W/m2
13:25 76.8 °F 70.9 °F 29.90 in NNW 3 mph 3 mph 82% 0.00 in 745 W/m2
13:30 76.9 °F 70.3 °F 29.90 in SW 3 mph 3 mph 80% 0.00 in 752 W/m2
13:40 76.6 °F 70.3 °F 29.91 in SSE 3 mph 3 mph 81% 0.00 in 269 W/m2
13:50 76.7 °F 70.8 °F 29.90 in SSW 3 mph 4 mph 82% 0.00 in 835 W/m2
13:55 76.3 °F 70.4 °F 29.90 in SW 3 mph 4 mph 82% 0.00 in 352 W/m2
14:00 75.9 °F 70.4 °F 29.89 in SW 3 mph 5 mph 83% 0.00 in 858 W/m2
14:05 76.1 °F 70.6 °F 29.89 in South 3 mph 5 mph 83% 0.00 in 858 W/m2
14:10 75.9 °F 70.7 °F 29.89 in WSW 2 mph 2 mph 84% 0.00 in 860 W/m2
14:20 76 °F 70.8 °F 29.89 in NNW 3 mph 3 mph 84% 0.00 in 752 W/m2
14:25 76.2 °F 71 °F 29.90 in South 3 mph 3 mph 84% 0.00 in 673 W/m2
14:30 76.4 °F 70.9 °F 29.90 in SW 3 mph 8 mph 83% 0.00 in 726 W/m2
14:40 76.6 °F 71 °F 29.90 in SW 4 mph 4 mph 83% 0.00 in 731 W/m2
14:45 76.6 °F 71 °F 29.90 in SW 3 mph 4 mph 83% 0.00 in 726 W/m2
14:50 76.9 °F 71 °F 29.90 in WNW 3 mph 3 mph 82% 0.00 in 726 W/m2
14:55 77 °F 71.4 °F 29.89 in SSW 3 mph 5 mph 83% 0.00 in 721 W/m2
15:00 77 °F 71.4 °F 29.89 in SSW 3 mph 3 mph 83% 0.00 in 728 W/m2
15:05 76.6 °F 71 °F 29.89 in South 3 mph 4 mph 83% 0.00 in 722 W/m2
15:10 77 °F 71.8 °F 29.89 in SW 2 mph 4 mph 84% 0.00 in 724 W/m2
15:15 77.2 °F 71.3 °F 29.89 in ESE 2 mph 4 mph 82% 0.00 in 715 W/m2
15:20 77.5 °F 71.6 °F 29.89 in SW 3 mph 3 mph 82% 0.00 in 645 W/m2
15:25 77.5 °F 70.8 °F 29.89 in SW 3 mph 3 mph 80% 0.00 in 684 W/m2
15:30 77.5 °F 70.8 °F 29.89 in South 3 mph 3 mph 80% 0.00 in 693 W/m2
15:35 77.6 °F 70.9 °F 29.89 in South 2 mph 3 mph 80% 0.00 in 682 W/m2
15:40 77.6 °F 70.9 °F 29.89 in ENE 3 mph 3 mph 80% 0.00 in 668 W/m2
15:45 77.7 °F 71 °F 29.88 in SE 3 mph 3 mph 80% 0.00 in 656 W/m2
15:50 77.8 °F 70.8 °F 29.88 in SW 3 mph 3 mph 79% 0.00 in 647 W/m2
15:55 77.9 °F 70.5 °F 29.88 in SSW 2 mph 4 mph 78% 0.00 in 636 W/m2
16:00 77.9 °F 70.5 °F 29.88 in South 2 mph 3 mph 78% 0.00 in 633 W/m2
16:05 78 °F 70.6 °F 29.88 in SW 3 mph 3 mph 78% 0.00 in 626 W/m2
16:10 78.2 °F 70.4 °F 29.88 in SE 3 mph 3 mph 77% 0.00 in 617 W/m2
16:15 78.3 °F 70.5 °F 29.88 in South 2 mph 3 mph 77% 0.00 in 606 W/m2
16:20 78.4 °F 70.2 °F 29.88 in SSW 2 mph 2 mph 76% 0.00 in 596 W/m2
16:25 78.7 °F 70.1 °F 29.88 in SSE 2 mph 2 mph 75% 0.00 in 587 W/m2
16:30 78.8 °F 70.2 °F 29.88 in SSW 2 mph 2 mph 75% 0.00 in 575 W/m2
16:35 79.2 °F 70.6 °F 29.88 in ENE 2 mph 2 mph 75% 0.00 in 566 W/m2
16:40 79.4 °F 70.8 °F 29.87 in ESE 1 mph 1 mph 75% 0.00 in 557 W/m2
16:45 79.5 °F 70.5 °F 29.87 in NNW 1 mph 1 mph 74% 0.00 in 545 W/m2
16:50 79.7 °F 69.9 °F 29.87 in East 1 mph 1 mph 72% 0.00 in 536 W/m2
16:55 79.7 °F 70.7 °F 29.87 in NNW 1 mph 2 mph 74% 0.00 in 522 W/m2
17:00 79.9 °F 70.9 °F 29.86 in SW 1 mph 1 mph 74% 0.00 in 503 W/m2
17:05 80 °F 70.6 °F 29.86 in WNW 1 mph 1 mph 73% 0.00 in 510 W/m2
17:10 80 °F 70.6 °F 29.86 in NNE 1 mph 1 mph 73% 0.00 in 329 W/m2
17:15 80 °F 70.2 °F 29.86 in NE 1 mph 1 mph 72% 0.00 in 185 W/m2
17:20 80.1 °F 70.3 °F 29.86 in North 1 mph 2 mph 72% 0.00 in 439 W/m2
17:25 80.2 °F 69.5 °F 29.86 in East 1 mph 2 mph 70% 0.00 in 345 W/m2
17:30 80.3 °F 69.6 °F 29.86 in NE 1 mph 1 mph 70% 0.00 in 408 W/m2
17:35 80.5 °F 69.4 °F 29.86 in NE 1 mph 1 mph 69% 0.00 in 373 W/m2
17:40 80.7 °F 69.2 °F 29.86 in NE 1 mph 1 mph 68% 0.00 in 302 W/m2
17:45 80.7 °F 69.6 °F 29.86 in East 1 mph 2 mph 69% 0.00 in 283 W/m2
17:50 80.6 °F 68.6 °F 29.86 in East 1 mph 1 mph 67% 0.00 in 243 W/m2
17:55 80.6 °F 68.6 °F 29.86 in West 1 mph 1 mph 67% 0.00 in 207 W/m2
18:00 80.7 °F 68.7 °F 29.86 in NE 1 mph 1 mph 67% 0.00 in 225 W/m2
18:05 80.7 °F 68.7 °F 29.86 in NE 1 mph 2 mph 67% 0.00 in 244 W/m2
18:10 80.7 °F 69.6 °F 29.86 in NNE 1 mph 2 mph 69% 0.00 in 343 W/m2
18:15 80.8 °F 69.7 °F 29.86 in NE 1 mph 2 mph 69% 0.00 in 338 W/m2
18:20 80.9 °F 69.3 °F 29.86 in South 1 mph 3 mph 68% 0.00 in 290 W/m2
18:25 80.9 °F 68.9 °F 29.86 in ENE 1 mph 3 mph 67% 0.00 in 302 W/m2
18:30 81 °F 69.9 °F 29.86 in NE 1 mph 1 mph 69% 0.00 in 272 W/m2
18:35 81 °F 69.9 °F 29.86 in ESE 1 mph 3 mph 69% 0.00 in 178 W/m2
18:40 81 °F 69.4 °F 29.86 in SE 1 mph 2 mph 68% 0.00 in 111 W/m2
18:45 80.9 °F 68.5 °F 29.86 in SE 1 mph 2 mph 66% 0.00 in 69 W/m2
18:50 81 °F 68.6 °F 29.86 in SE 2 mph 2 mph 66% 0.00 in 63 W/m2
18:55 81.1 °F 69.5 °F 29.86 in ESE 2 mph 2 mph 68% 0.00 in 63 W/m2
19:00 81 °F 68.6 °F 29.86 in SSW 2 mph 3 mph 66% 0.00 in 60 W/m2
19:05 81 °F 68.6 °F 29.86 in SW 2 mph 3 mph 66% 0.00 in 56 W/m2
19:10 81 °F 68.6 °F 29.86 in SW 2 mph 2 mph 66% 0.00 in 42 W/m2
19:15 80.9 °F 68 °F 29.86 in South 2 mph 2 mph 65% 0.00 in 33 W/m2
19:20 80.8 °F 69.2 °F 29.85 in SSW 2 mph 2 mph 68% 0.00 in 42 W/m2
19:25 80.8 °F 67.9 °F 29.85 in SSW 2 mph 2 mph 65% 0.00 in 42 W/m2
19:30 80.8 °F 68.4 °F 29.85 in SSW 1 mph 2 mph 66% 0.00 in 32 W/m2
19:35 80.8 °F 69.2 °F 29.85 in NE 1 mph 2 mph 68% 0.00 in 25 W/m2
19:40 80.8 °F 69.7 °F 29.85 in ENE 1 mph 2 mph 69% 0.00 in 28 W/m2
19:45 80.7 °F 68.3 °F 29.85 in SE 1 mph 2 mph 66% 0.00 in 32 W/m2
19:50 80.6 °F 67.7 °F 29.84 in SSE 1 mph 1 mph 65% 0.00 in 32 W/m2
19:55 80.6 °F 69.1 °F 29.84 in SE 1 mph 1 mph 68% 0.00 in 32 W/m2
20:00 80.5 °F 68.1 °F 29.85 in ENE 1 mph 1 mph 66% 0.00 in 28 W/m2
20:05 80.5 °F 69 °F 29.84 in NE 1 mph 2 mph 68% 0.00 in 25 W/m2
20:10 80.3 °F 68.8 °F 29.85 in ENE 1 mph 1 mph 68% 0.00 in 19 W/m2
20:15 80.3 °F 69.2 °F 29.85 in NE 1 mph 1 mph 69% 0.00 in 14 W/m2
20:20 80.2 °F 69.1 °F 29.85 in NE 1 mph 1 mph 69% 0.00 in 9 W/m2
20:25 80.2 °F 69.1 °F 29.85 in WSW 1 mph 1 mph 69% 0.00 in 5 W/m2
20:30 80 °F 68.9 °F 29.85 in NE 1 mph 1 mph 69% 0.00 in 0 W/m2
20:35 80.1 °F 69.4 °F 29.85 in SSW 1 mph 1 mph 70% 0.00 in 0 W/m2
20:40 80 °F 69.3 °F 29.85 in NE 1 mph 1 mph 70% 0.00 in 0 W/m2
20:45 80 °F 69.3 °F 29.85 in SW 1 mph 1 mph 70% 0.00 in 0 W/m2
20:50 80 °F 69.3 °F 29.86 in SW 1 mph 2 mph 70% 0.00 in 0 W/m2
20:55 80.1 °F 69.8 °F 29.86 in South 1 mph 2 mph 71% 0.00 in 0 W/m2
21:00 80.1 °F 69.8 °F 29.86 in SE 2 mph 2 mph 71% 0.00 in 0 W/m2
21:05 80 °F 69.7 °F 29.86 in SE 1 mph 2 mph 71% 0.00 in 0 W/m2
21:10 80.1 °F 71.1 °F 29.86 in WSW 2 mph 2 mph 74% 0.00 in 0 W/m2
21:15 80 °F 70.6 °F 29.87 in SW 2 mph 3 mph 73% 0.00 in 0 W/m2
21:20 80 °F 71.4 °F 29.87 in WSW 2 mph 3 mph 75% 0.00 in 0 W/m2
21:25 79.9 °F 71.3 °F 29.87 in SW 2 mph 3 mph 75% 0.00 in 0 W/m2
21:30 79.8 °F 70.8 °F 29.87 in NW 2 mph 2 mph 74% 0.00 in 0 W/m2
21:35 79.8 °F 71.2 °F 29.87 in SSW 2 mph 4 mph 75% 0.00 in 0 W/m2
21:40 79.7 °F 71.1 °F 29.87 in SW 2 mph 4 mph 75% 0.00 in 0 W/m2
21:45 79.6 °F 70.6 °F 29.88 in SSW 2 mph 4 mph 74% 0.00 in 0 W/m2
21:50 79.6 °F 71 °F 29.88 in SSW 3 mph 3 mph 75% 0.00 in 0 W/m2
21:55 79.5 °F 70.9 °F 29.88 in WSW 2 mph 3 mph 75% 0.00 in 0 W/m2
22:00 79.5 °F 70.9 °F 29.88 in SW 2 mph 2 mph 75% 0.00 in 0 W/m2
22:05 79.3 °F 70.3 °F 29.88 in West 2 mph 2 mph 74% 0.00 in 0 W/m2
22:10 79.3 °F 70.7 °F 29.88 in NNW 2 mph 2 mph 75% 0.00 in 0 W/m2
22:15 79.2 °F 70.6 °F 29.88 in WSW 2 mph 4 mph 75% 0.00 in 0 W/m2
22:20 79.1 °F 70.5 °F 29.88 in SE 2 mph 2 mph 75% 0.00 in 0 W/m2
22:25 79 °F 70.4 °F 29.88 in SW 2 mph 2 mph 75% 0.00 in 0 W/m2
22:30 79 °F 70.4 °F 29.88 in WNW 2 mph 2 mph 75% 0.00 in 0 W/m2
Sand Point, Michigan, USA
Compliments of Weather Underground - 2 mb